FW9422 Weather Reports


time (UTC)temp
C
wind
direction
speed
KPH
gust
KPH
rain 1hr
cm
rain 24hr
cm
rain mn
cm
humidity
%
barometer
mb
20260503193056 19 0 4.8 11.3 0.00 0.00 0.00 53 1012.8
20260503192701 18 189 0.0 4.8 0.00 0.00 0.00 53 1012.8
20260503192056 18 0 0.0 6.4 0.00 0.00 0.00 54 1012.8
20260503191556 19 234 1.6 8.0 0.00 0.00 0.00 54 1012.8
20260503191100 19 183 3.2 8.0 0.00 0.00 0.00 54 1012.9
20260503190558 18 0 0.0 8.0 0.00 0.00 0.00 55 1012.9
20260503190057 18 199 0.0 8.0 0.00 0.00 0.00 56 1013.0
20260503185553 18 0 0.0 11.3 0.00 0.00 0.00 56 1013.0
20260503185057 18 153 3.2 11.3 0.00 0.00 0.00 57 1013.1
20260503184619 18 139 3.2 11.3 0.00 0.00 0.00 57 1013.1
20260503184057 17 0 3.2 9.7 0.00 0.00 0.00 59 1013.0
20260503183556 17 115 3.2 11.3 0.00 0.00 0.00 59 1013.2
20260503183101 17 118 4.8 11.3 0.00 0.00 0.00 59 1013.2
20260503182553 17 161 3.2 11.3 0.00 0.00 0.00 59 1013.3
20260503182053 17 130 3.2 9.7 0.00 0.00 0.00 60 1013.3
20260503181559 17 192 3.2 6.4 0.00 0.00 0.00 62 1013.3
20260503181054 17 110 0.0 9.7 0.00 0.00 0.00 63 1013.2
20260503180554 16 0 1.6 9.7 0.00 0.00 0.00 63 1013.3
20260503175553 16 178 0.0 8.0 0.00 0.00 0.00 64 1013.3
20260503175053 16 0 3.2 8.0 0.00 0.00 0.00 64 1013.3
20260503174556 16 0 1.6 9.7 0.00 0.00 0.00 65 1013.2
20260503174053 16 127 1.6 9.7 0.00 0.00 0.00 66 1013.2
20260503173555 16 138 1.6 9.7 0.00 0.00 0.00 66 1013.3
20260503173100 16 171 1.6 6.4 0.00 0.00 0.00 67 1013.3
20260503172557 16 0 0.0 17.7 0.00 0.00 0.00 68 1013.3
20260503172056 16 186 4.8 17.7 0.00 0.00 0.00 68 1013.4
20260503171612 16 190 3.2 9.7 0.00 0.00 0.00 71 1013.3
20260503171101 15 0 0.0 3.2 0.00 0.00 0.00 73 1013.3
20260503170558 15 0 0.0 3.2 0.00 0.00 0.00 73 1013.2
20260503170106 14 0 0.0 3.2 0.00 0.00 0.00 76 1013.3
20260503150559 13 119 0.0 4.8 0.00 0.00 0.00 74 1012.7
20260503131100 12 0 0.0 4.8 0.00 0.00 0.00 78 1011.4
20260503130559 12 0 0.0 4.8 0.00 0.00 0.00 78 1011.4
20260503110558 12 0 0.0 6.4 0.00 0.00 0.00 79 1011.5
20260503090117 12 0 0.0 9.7 0.00 0.00 0.00 78 1011.7
20260503081601 12 317 1.6 6.4 0.00 0.00 0.00 78 1011.9
20260503081057 12 299 1.6 6.4 0.00 0.00 0.00 78 1012.0
20260503080558 12 280 0.0 6.4 0.00 0.00 0.00 78 1012.0
20260503080110 13 261 1.6 6.4 0.00 0.00 0.00 78 1012.0
20260503072557 13 336 0.0 6.4 0.00 0.00 0.00 78 1012.1
20260503072057 13 17 0.0 6.4 0.00 0.00 0.00 78 1012.0
20260503071610 13 350 0.0 4.8 0.00 0.00 0.00 78 1012.0
20260503071057 13 0 1.6 4.8 0.00 0.00 0.00 78 1012.1
20260503070557 13 0 0.0 6.4 0.00 0.00 0.00 78 1012.1
20260503055057 13 0 1.6 9.7 0.00 0.00 0.00 77 1012.4
20260503054609 13 313 4.8 9.7 0.00 0.00 0.00 76 1012.5
20260503054102 13 340 1.6 12.9 0.00 0.00 0.00 76 1012.6
20260503053557 13 323 1.6 12.9 0.00 0.00 0.00 76 1012.5
20260503053058 13 331 3.2 12.9 0.00 0.00 0.00 75 1012.6
20260503052556 13 323 1.6 8.0 0.00 0.00 0.00 75 1012.8
20260503052100 13 19 3.2 9.7 0.00 0.00 0.00 75 1012.8
20260503051559 13 315 3.2 9.7 0.00 0.00 0.00 75 1012.7
20260503051101 13 0 3.2 9.7 0.00 0.00 0.00 75 1012.6
20260503050557 13 325 4.8 9.7 0.00 0.00 0.00 75 1012.7
20260503050058 13 316 1.6 9.7 0.00 0.00 0.00 76 1012.6
20260503045558 13 307 3.2 9.7 0.00 0.00 0.00 76 1012.5
20260503045056 13 279 3.2 11.3 0.00 0.00 0.00 76 1012.5
20260503044558 13 323 3.2 11.3 0.00 0.00 0.00 76 1012.4
20260503044057 13 319 3.2 11.3 0.00 0.00 0.00 76 1012.4
20260503043601 13 299 1.6 11.3 0.00 0.00 0.00 76 1012.3
20260503043057 13 314 1.6 14.5 0.00 0.00 0.00 76 1012.2
20260503042600 13 340 4.8 14.5 0.00 0.00 0.00 76 1012.2
20260503042058 13 304 4.8 14.5 0.00 0.00 0.00 76 1012.2
20260503041601 13 299 4.8 12.9 0.00 0.00 0.00 76 1012.1
20260503041057 13 302 4.8 14.5 0.00 0.00 0.00 76 1012.0
20260503040554 13 317 1.6 17.7 0.00 0.00 0.00 76 1012.1
20260503040059 13 296 4.8 17.7 0.00 0.00 0.00 76 1012.0
20260503035557 13 309 6.4 17.7 0.00 0.00 0.00 75 1011.9
20260503035054 13 338 4.8 14.5 0.00 0.00 0.00 75 1011.8
20260503034600 13 30 3.2 12.9 0.00 0.00 0.00 75 1011.7
20260503034057 13 327 3.2 12.9 0.00 0.00 0.00 75 1011.8
20260503033557 13 319 4.8 16.1 0.00 0.00 0.00 74 1011.7
20260503033054 13 333 6.4 16.1 0.00 0.00 0.00 74 1011.8
20260503032554 13 334 6.4 16.1 0.00 0.00 0.00 73 1011.7
20260503032058 14 266 4.8 16.1 0.00 0.00 0.00 73 1011.7
20260503031556 14 279 4.8 16.1 0.00 0.00 0.00 73 1011.7
20260503031058 14 334 4.8 12.9 0.00 0.00 0.00 73 1011.7
20260503030557 14 0 4.8 12.9 0.00 0.00 0.00 72 1011.6
20260503025554 14 313 6.4 14.5 0.00 0.00 0.00 72 1011.5
20260503025101 14 352 4.8 14.5 0.00 0.00 0.00 72 1011.3
20260503024558 14 332 4.8 14.5 0.00 0.00 0.00 72 1011.4
20260503024058 14 298 6.4 14.5 0.00 0.00 0.00 71 1011.2
20260503023555 14 306 3.2 16.1 0.00 0.00 0.00 71 1011.2
20260503023107 15 336 6.4 16.1 0.00 0.00 0.00 71 1011.2
20260503022557 15 335 6.4 19.3 0.00 0.00 0.00 71 1011.1
20260503022058 15 344 4.8 20.9 0.00 0.00 0.00 71 1011.0
20260503021602 15 13 6.4 20.9 0.00 0.00 0.00 71 1011.1
20260503021058 15 315 9.7 20.9 0.00 0.00 0.00 70 1011.1
20260503020555 15 338 12.9 20.9 0.00 0.00 0.00 70 1011.2
20260503020059 15 302 9.7 20.9 0.00 0.00 0.00 70 1011.1
20260503015554 16 325 9.7 20.9 0.00 0.00 0.00 70 1011.1
20260503015054 16 360 9.7 19.3 0.00 0.00 0.00 70 1011.2
20260503014555 16 335 6.4 17.7 0.00 0.00 0.00 70 1011.1
20260503014057 16 21 6.4 17.7 0.00 0.00 0.00 70 1011.1
20260503013559 16 338 9.7 17.7 0.00 0.00 0.00 69 1011.2
20260503013059 16 349 8.0 17.7 0.00 0.00 0.00 69 1011.2
20260503012555 16 333 6.4 16.1 0.00 0.00 0.00 69 1011.1
20260503012054 17 331 6.4 19.3 0.00 0.00 0.00 69 1011.1
20260503011620 17 5 8.0 19.3 0.00 0.00 0.00 68 1011.2
20260503011057 17 360 11.3 19.3 0.00 0.00 0.00 67 1011.1
20260503010555 17 352 6.4 19.3 0.00 0.00 0.00 67 1011.1
20260503010058 17 314 9.7 19.3 0.00 0.00 0.00 67 1011.1
20260503005559 17 5 6.4 22.5 0.00 0.00 0.00 67 1011.1
20260503005058 17 323 8.0 22.5 0.00 0.00 0.00 66 1011.1
20260503004555 17 283 9.7 19.3 0.00 0.00 0.00 66 1011.1
20260503004058 17 351 8.0 20.9 0.00 0.00 0.00 66 1011.1
20260503003557 18 19 8.0 20.9 0.00 0.00 0.00 65 1011.1
20260503003055 18 348 4.8 17.7 0.00 0.00 0.00 65 1011.2
20260503002557 18 330 8.0 19.3 0.00 0.00 0.00 66 1011.2
20260503002103 18 319 9.7 22.5 0.00 0.00 0.00 66 1011.2
20260503001619 18 323 9.7 22.5 0.00 0.00 0.00 65 1011.3
20260503001055 18 320 9.7 19.3 0.00 0.00 0.00 66 1011.3
20260503000558 18 360 4.8 20.9 0.00 0.00 0.00 66 1011.3
20260503000126 18 298 11.3 20.9 0.00 0.00 0.00 65 1011.2
20260502235600 18 294 11.3 22.5 0.00 0.00 0.00 63 1011.4
20260502235057 18 319 9.7 22.5 0.00 0.00 0.00 63 1011.3
20260502234606 18 336 9.7 25.7 0.00 0.00 0.00 63 1011.2
20260502234058 18 302 9.7 25.7 0.00 0.00 0.00 63 1011.3
20260502233557 19 300 8.0 25.7 0.00 0.00 0.00 64 1011.3
20260502233057 18 334 9.7 19.3 0.00 0.00 0.00 64 1011.4
20260502232557 18 316 9.7 20.9 0.00 0.00 0.00 64 1011.5
20260502232058 18 15 9.7 25.7 0.00 0.00 0.00 65 1011.5
20260502231558 18 350 8.0 25.7 0.00 0.00 0.00 64 1011.6
20260502231104 18 331 9.7 25.7 0.00 0.00 0.00 64 1011.7
20260502230558 19 311 9.7 20.9 0.00 0.00 0.00 64 1011.6
20260502230100 19 346 8.0 20.9 0.00 0.00 0.00 63 1011.9
20260502225559 19 315 9.7 20.9 0.00 0.00 0.00 62 1011.8
20260502225054 19 310 8.0 19.3 0.00 0.00 0.00 62 1012.0
20260502224604 19 13 8.0 19.3 0.00 0.00 0.00 63 1012.0
20260502224100 19 305 9.7 20.9 0.00 0.00 0.00 62 1012.2
20260502223554 19 347 11.3 20.9 0.00 0.00 0.00 62 1012.1
20260502223058 20 321 6.4 19.3 0.00 0.00 0.00 61 1012.1
20260502222558 20 310 9.7 19.3 0.00 0.00 0.00 61 1012.2
20260502222055 20 305 4.8 19.3 0.00 0.00 0.00 61 1012.3
20260502221612 20 360 4.8 19.3 0.00 0.00 0.00 62 1012.4
20260502221057 20 333 8.0 19.3 0.00 0.00 0.00 63 1012.5
20260502220558 20 317 9.7 17.7 0.00 0.00 0.00 62 1012.5
20260502215555 20 346 4.8 17.7 0.00 0.00 0.00 63 1012.5
20260502215058 19 281 6.4 16.1 0.00 0.00 0.00 64 1012.6
20260502214556 20 310 8.0 16.1 0.00 0.00 0.00 63 1012.7
20260502214057 20 286 6.4 16.1 0.00 0.00 0.00 63 1012.5
20260502213558 20 294 6.4 16.1 0.00 0.00 0.00 63 1012.7
20260502213057 19 315 8.0 16.1 0.00 0.00 0.00 64 1012.8
20260502212557 19 299 6.4 16.1 0.00 0.00 0.00 64 1012.7
20260502212058 19 31 4.8 20.9 0.00 0.00 0.00 64 1013.0
20260502211555 19 352 6.4 20.9 0.00 0.00 0.00 64 1013.0
20260502211058 20 343 4.8 17.7 0.00 0.00 0.00 63 1013.0
20260502210558 20 345 8.0 17.7 0.00 0.00 0.00 62 1013.0
20260502210120 19 13 4.8 17.7 0.00 0.00 0.00 64 1013.0
20260502205600 19 332 4.8 14.5 0.00 0.00 0.00 64 1013.1
20260502205058 19 340 3.2 12.9 0.00 0.00 0.00 64 1013.2
20260502204559 19 273 4.8 12.9 0.00 0.00 0.00 64 1013.3
20260502204058 19 360 6.4 12.9 0.00 0.00 0.00 64 1013.4
20260502203558 19 17 4.8 12.9 0.00 0.00 0.00 64 1013.3
20260502203058 19 0 3.2 16.1 0.00 0.00 0.00 63 1013.4
20260502202557 19 350 4.8 16.1 0.00 0.00 0.00 63 1013.4
20260502202102 20 5 6.4 16.1 0.00 0.00 0.00 62 1013.6
20260502201557 20 321 4.8 14.5 0.00 0.00 0.00 64 1013.4
20260502201057 19 326 4.8 14.5 0.00 0.00 0.00 64 1013.6
20260502200558 19 30 6.4 17.7 0.00 0.00 0.00 64 1013.6
20260502200121 20 11 1.6 17.7 0.00 0.00 0.00 63 1013.7
20260502195557 20 352 6.4 17.7 0.00 0.00 0.00 61 1013.8
20260502195057 20 352 3.2 11.3 0.00 0.00 0.00 62 1013.7
20260502194600 21 0 1.6 11.3 0.00 0.00 0.00 60 1013.7
20260502194058 20 193 1.6 11.3 0.00 0.00 0.00 64 1013.7
20260502193558 19 62 3.2 11.3 0.00 0.00 0.00 65 1013.8